TimeCST,TemperatureF,Dew PointF,Humidity,Sea Level PressureIn,VisibilityMPH,Wind Direction,Wind SpeedMPH,Gust SpeedMPH,PrecipitationIn,Events,Conditions,WindDirDegrees,DateUTC
12:15 AM,33.6,31.8,93,30.42,10.0,Calm,Calm,-,N/A,,Clear,0,2012-11-18 06:15:00
12:35 AM,32.9,31.1,93,30.41,7.0,Calm,Calm,-,N/A,,Clear,0,2012-11-18 06:35:00
12:55 AM,32.4,31.3,96,30.41,7.0,Calm,Calm,-,N/A,,Clear,0,2012-11-18 06:55:00
1:15 AM,32.2,31.1,96,30.40,7.0,Calm,Calm,-,N/A,,Clear,0,2012-11-18 07:15:00
1:35 AM,32.0,30.7,95,30.40,7.0,Calm,Calm,-,N/A,,Clear,0,2012-11-18 07:35:00
1:55 AM,32.0,30.7,95,30.40,7.0,East,4.6,-,N/A,,Clear,90,2012-11-18 07:55:00
2:15 AM,32.0,30.4,94,30.40,7.0,Calm,Calm,-,N/A,,Clear,0,2012-11-18 08:15:00
2:35 AM,31.5,29.7,93,30.40,7.0,Calm,Calm,-,N/A,,Clear,0,2012-11-18 08:35:00
2:55 AM,31.8,30.0,93,30.40,10.0,Calm,Calm,-,N/A,,Clear,0,2012-11-18 08:55:00
3:15 AM,32.0,29.5,90,30.40,10.0,Calm,Calm,-,N/A,,Clear,0,2012-11-18 09:15:00
3:35 AM,30.9,29.1,93,30.39,7.0,Calm,Calm,-,N/A,,Clear,0,2012-11-18 09:35:00
3:55 AM,30.9,29.3,94,30.39,7.0,Calm,Calm,-,N/A,,Clear,0,2012-11-18 09:55:00
4:15 AM,30.9,29.3,94,30.39,7.0,Calm,Calm,-,N/A,,Clear,0,2012-11-18 10:15:00
4:35 AM,30.9,29.3,94,30.39,5.0,Calm,Calm,-,N/A,,Clear,0,2012-11-18 10:35:00
4:55 AM,30.2,28.6,94,30.39,5.0,Calm,Calm,-,N/A,,Clear,0,2012-11-18 10:55:00
5:15 AM,30.2,28.8,94,30.39,5.0,Calm,Calm,-,N/A,,Clear,0,2012-11-18 11:15:00
5:35 AM,29.8,28.4,94,30.39,7.0,Calm,Calm,-,N/A,,Clear,0,2012-11-18 11:35:00
5:55 AM,30.0,28.4,94,30.40,7.0,Calm,Calm,-,N/A,,Clear,0,2012-11-18 11:55:00
6:15 AM,30.0,28.2,93,30.40,7.0,Calm,Calm,-,N/A,,Clear,0,2012-11-18 12:15:00
6:35 AM,30.0,28.4,94,30.41,5.0,Calm,Calm,-,N/A,,Clear,0,2012-11-18 12:35:00
6:55 AM,30.7,29.1,94,30.40,5.0,Calm,Calm,-,N/A,,Clear,0,2012-11-18 12:55:00
7:15 AM,30.9,29.3,94,30.40,5.0,Calm,Calm,-,N/A,,Clear,0,2012-11-18 13:15:00
7:35 AM,32.2,30.9,95,30.41,5.0,Calm,Calm,-,N/A,,Clear,0,2012-11-18 13:35:00
7:55 AM,34.7,32.5,92,30.41,5.0,Calm,Calm,-,N/A,,Clear,0,2012-11-18 13:55:00
8:15 AM,39.7,34.5,82,30.40,7.0,Calm,Calm,-,N/A,,Clear,0,2012-11-18 14:15:00
8:35 AM,43.2,35.1,73,30.40,10.0,Calm,Calm,-,N/A,,Clear,0,2012-11-18 14:35:00
8:55 AM,45.9,35.8,68,30.40,10.0,East,3.5,-,N/A,,Clear,100,2012-11-18 14:55:00
9:15 AM,48.0,37.0,66,30.40,10.0,ESE,3.5,-,N/A,,Clear,120,2012-11-18 15:15:00
9:35 AM,50.9,37.8,61,30.41,10.0,SE,3.5,-,N/A,,Clear,130,2012-11-18 15:35:00
9:55 AM,51.8,36.0,55,30.41,10.0,SSE,4.6,-,N/A,,Clear,150,2012-11-18 15:55:00
10:15 AM,53.4,36.7,53,30.41,10.0,SE,4.6,-,N/A,,Clear,140,2012-11-18 16:15:00
10:35 AM,54.3,36.7,51,30.40,10.0,SE,3.5,-,N/A,,Clear,130,2012-11-18 16:35:00
10:55 AM,55.8,37.0,49,30.40,10.0,East,3.5,-,N/A,,Clear,100,2012-11-18 16:55:00
11:15 AM,56.7,37.8,49,30.40,10.0,SSE,3.5,-,N/A,,Clear,150,2012-11-18 17:15:00
11:35 AM,57.2,37.2,47,30.38,10.0,SE,3.5,-,N/A,,Clear,140,2012-11-18 17:35:00
11:55 AM,57.9,35.8,44,30.37,10.0,SSW,4.6,-,N/A,,Clear,200,2012-11-18 17:55:00
12:15 PM,58.5,35.4,42,30.36,10.0,Calm,Calm,-,N/A,,Clear,0,2012-11-18 18:15:00
12:35 PM,59.2,35.8,42,30.36,10.0,South,5.8,-,N/A,,Clear,180,2012-11-18 18:35:00
12:55 PM,59.0,36.0,42,30.36,10.0,South,4.6,-,N/A,,Clear,190,2012-11-18 18:55:00
1:15 PM,59.9,35.4,40,30.35,10.0,SE,4.6,-,N/A,,Clear,140,2012-11-18 19:15:00
1:35 PM,59.9,33.6,37,30.35,10.0,ESE,3.5,-,N/A,,Clear,120,2012-11-18 19:35:00
1:55 PM,60.8,33.8,36,30.34,10.0,South,3.5,-,N/A,,Clear,190,2012-11-18 19:55:00
2:15 PM,60.4,33.6,37,30.33,10.0,South,4.6,-,N/A,,Clear,190,2012-11-18 20:15:00
2:35 PM,60.4,33.8,37,30.33,10.0,SSE,4.6,-,N/A,,Unknown,160,2012-11-18 20:35:00
2:55 PM,60.6,32.5,35,30.33,10.0,SSE,4.6,-,N/A,,Unknown,160,2012-11-18 20:55:00
3:15 PM,60.3,33.4,37,30.33,10.0,ESE,5.8,-,N/A,,Unknown,120,2012-11-18 21:15:00
3:35 PM,59.4,33.3,37,30.33,10.0,SE,5.8,-,N/A,,Clear,130,2012-11-18 21:35:00
3:55 PM,58.1,35.1,42,30.33,10.0,ESE,4.6,-,N/A,,Clear,120,2012-11-18 21:55:00
4:15 PM,56.3,34.3,44,30.33,10.0,ESE,3.5,-,N/A,,Clear,120,2012-11-18 22:15:00
4:35 PM,52.9,36.3,53,30.34,10.0,South,3.5,-,N/A,,Clear,170,2012-11-18 22:35:00
4:55 PM,51.8,34.5,52,30.32,10.0,SE,4.6,-,N/A,,Clear,130,2012-11-18 22:55:00
5:15 PM,49.3,34.3,56,30.32,10.0,ESE,3.5,-,N/A,,Clear,120,2012-11-18 23:15:00
5:35 PM,47.3,34.3,61,30.33,10.0,Calm,Calm,-,N/A,,Clear,0,2012-11-18 23:35:00
5:55 PM,46.8,34.9,63,30.33,10.0,Calm,Calm,-,N/A,,Clear,0,2012-11-18 23:55:00
6:15 PM,42.8,36.0,77,30.33,10.0,East,3.5,-,N/A,,Clear,100,2012-11-19 00:15:00
6:35 PM,43.2,35.2,74,30.34,10.0,East,4.6,-,N/A,,Clear,100,2012-11-19 00:35:00
6:55 PM,44.1,34.2,68,30.34,10.0,Calm,Calm,-,N/A,,Clear,0,2012-11-19 00:55:00
7:15 PM,43.0,34.3,72,30.34,10.0,Calm,Calm,-,N/A,,Clear,0,2012-11-19 01:15:00
7:35 PM,41.7,34.7,76,30.34,10.0,Calm,Calm,-,N/A,,Clear,0,2012-11-19 01:35:00
7:55 PM,39.6,35.2,85,30.34,10.0,Calm,Calm,-,N/A,,Clear,0,2012-11-19 01:55:00
8:15 PM,39.9,35.1,83,30.34,10.0,Calm,Calm,-,N/A,,Clear,0,2012-11-19 02:15:00
8:35 PM,40.1,35.4,83,30.34,10.0,Calm,Calm,-,N/A,,Clear,0,2012-11-19 02:35:00
8:55 PM,40.8,35.1,80,30.34,10.0,ESE,3.5,-,N/A,,Clear,120,2012-11-19 02:55:00
9:15 PM,40.3,35.1,82,30.34,10.0,Calm,Calm,-,N/A,,Clear,0,2012-11-19 03:15:00
9:35 PM,39.9,35.4,84,30.33,10.0,Calm,Calm,-,N/A,,Clear,0,2012-11-19 03:35:00
9:55 PM,39.2,35.6,87,30.33,10.0,Calm,Calm,-,N/A,,Clear,0,2012-11-19 03:55:00
10:15 PM,41.0,35.6,81,30.34,10.0,Calm,Calm,-,N/A,,Clear,0,2012-11-19 04:15:00
10:35 PM,40.8,34.7,79,30.34,10.0,Calm,Calm,-,N/A,,Clear,0,2012-11-19 04:35:00
10:55 PM,39.2,35.6,87,30.33,10.0,Calm,Calm,-,N/A,,Clear,0,2012-11-19 04:55:00
11:15 PM,39.2,34.2,82,30.33,10.0,Calm,Calm,-,N/A,,Clear,0,2012-11-19 05:15:00
11:35 PM,37.4,33.8,87,30.33,10.0,Calm,Calm,-,N/A,,Clear,0,2012-11-19 05:35:00
11:55 PM,37.4,34.0,87,30.33,10.0,Calm,Calm,-,N/A,,Clear,0,2012-11-19 05:55:00